Weather History for Fort Leonard Wood, MO

Change the Weather History Date:

Sunday, October 7, 2012

  Actual Average Record
Temperature  
Mean Temperature 42 °F -  
Max Temperature 52 °F 69 °F 87 °F (2007)
Min Temperature 32 °F 50 °F 32 °F (2000)
Degree Days  
Heating Degree Days 23    
Moisture  
Dew Point 34 °F    
Average Humidity 77    
Maximum Humidity 99    
Minimum Humidity 41    
Precipitation  
Precipitation 0.00 in - - ()
Sea Level Pressure  
Sea Level Pressure 30.25 in    
Wind  
Wind Speed 2 mph (West)    
Max Wind Speed 7 mph    
Max Gust Speed -    
Visibility 10 miles    
Events      
Averages and records for this station are not official NWS values.
T = Trace of Precipitation, MM = Missing Value Source: NWS Daily Summary

Daily Weather History Graph

Daily Weather History Graph

Search for Another Location

Airport:

Trip Planner

Search our weather history database for the weather conditions in past years. The results will help you decide how hot, cold, wet, or windy it might be!

Date:

Astronomy

Oct. 07, 2012 Rise Set
Actual Time 7:09 AM CDT 6:41 PM CDT
Civil Twilight 6:43 AM CDT 7:08 PM CDT
Nautical Twilight 6:13 AM CDT 7:38 PM CDT
Astronomical Twilight 5:42 AM CDT 8:08 PM CDT
Moon 11:58 PM CDT (10/7) 1:43 PM CDT (10/7)
Length of Visible Light 12h 24m
Length of Day
11h 31m
Waning Gibbous, 56% of the Moon is Illuminated
Oct 7
Waning Gibbous
Oct 8
Last Quarter
Oct 15
New
Oct 21
First Quarter
Oct 29
Full

Hourly Weather History & Observations

Time (CDT) Temp. Windchill Dew Point Humidity Pressure Visibility Wind Dir Wind Speed Gust Speed Precip Events Conditions
12:55 AM 35.2 °F - 34.9 °F 99% 30.27 in 10.0 mi Calm Calm - N/A   Clear
1:55 AM 36.1 °F - 35.8 °F 99% 30.28 in 10.0 mi Calm Calm - N/A   Overcast
2:55 AM 36.3 °F - 35.8 °F 98% 30.29 in 10.0 mi Calm Calm - N/A   Mostly Cloudy
3:55 AM 35.6 °F - 35.4 °F 99% 30.27 in 10.0 mi Calm Calm - N/A   Overcast
4:55 AM 34.0 °F 31.0 °F 33.8 °F 99% 30.28 in 10.0 mi WNW 3.5 mph - N/A   Partly Cloudy
5:55 AM 33.6 °F - 33.4 °F 99% 30.27 in 10.0 mi Calm Calm - N/A   Clear
6:55 AM 32.2 °F 28.9 °F 31.8 °F 99% 30.28 in 10.0 mi WNW 3.5 mph - N/A   Clear
7:55 AM 33.3 °F 30.2 °F 33.1 °F 99% 30.29 in 10.0 mi West 3.5 mph - N/A   Clear
8:55 AM 38.3 °F 34.8 °F 36.0 °F 91% 30.31 in 10.0 mi NNW 4.6 mph - N/A   Clear
9:55 AM 42.4 °F 38.8 °F 34.3 °F 73% 30.31 in 10.0 mi North 5.8 mph - N/A   Clear
10:55 AM 45.3 °F 43.0 °F 31.1 °F 58% 30.31 in 10.0 mi NW 4.6 mph - N/A   Clear
11:55 AM 48.0 °F - 30.7 °F 51% 30.30 in 10.0 mi Variable 4.6 mph - N/A   Clear
12:55 PM 49.8 °F - 30.9 °F 48% 30.28 in 10.0 mi Variable 6.9 mph - N/A   Clear
1:55 PM 51.4 °F - 30.6 °F 45% 30.25 in 10.0 mi Variable 6.9 mph - N/A   Clear
2:55 PM 52.2 °F - 30.9 °F 44% 30.23 in 10.0 mi NNW 5.8 mph - N/A   Clear
3:55 PM 52.0 °F - 28.9 °F 41% 30.21 in 10.0 mi WNW 4.6 mph - N/A   Clear
4:55 PM 50.9 °F - 28.2 °F 42% 30.19 in 10.0 mi Calm Calm - N/A   Clear
5:55 PM 50.5 °F - 30.9 °F 47% 30.19 in 10.0 mi Calm Calm - N/A   Partly Cloudy
6:55 PM 45.7 °F 44.4 °F 36.3 °F 70% 30.20 in 10.0 mi WSW 3.5 mph - N/A   Clear
7:55 PM 41.5 °F 39.6 °F 38.7 °F 89% 30.21 in 10.0 mi SSW 3.5 mph - N/A   Clear
8:55 PM 38.7 °F 36.3 °F 37.0 °F 94% 30.21 in 10.0 mi South 3.5 mph - N/A   Clear
9:55 PM 40.8 °F 38.8 °F 35.1 °F 80% 30.21 in 10.0 mi SW 3.5 mph - N/A   Clear
10:55 PM 39.4 °F 37.2 °F 36.9 °F 91% 30.21 in 10.0 mi SW 3.5 mph - N/A   Clear
11:55 PM 38.8 °F 36.5 °F 36.3 °F 91% 30.20 in 10.0 mi SW 3.5 mph - N/A   Clear